San Diego, CA

4:22 AM PST on February 20, 2018 (GMT -0800)
San Diego International-Lindbergh

Weather History for KSAN - March, 2014

Change the Weather History Date:

Monday, March 3, 2014

  Actual Average Record
Temperature  
Mean Temperature 60 °F 59 °F  
Max Temperature 67 °F 65 °F 79 °F (1931)
Min Temperature 52 °F 52 °F 38 °F (1894)
Degree Days  
Heating Degree Days 5 7  
Month to date heating degree days 12 21  
Since 1 July heating degree days 468 879  
Cooling Degree Days 0 0  
Month to date cooling degree days 0 0  
Year to date cooling degree days 9 5  
Growing Degree Days 9 (Base 50)    
Moisture  
Dew Point 52 °F    
Average Humidity 73    
Maximum Humidity 89    
Minimum Humidity 56    
Precipitation  
Precipitation 0.00 in 0.07 in 1.32 in (1896)
Month to date precipitation 1.25 0.22  
Year to date precipitation 2.26 4.47  
Since 1 July precipitation 4.50  
Snow  
Snow 0.00 in - - ()
Month to date snowfall 0.0  
Year to date snowfall 0.0  
Snow Depth 0.00 in    
Sea Level Pressure  
Sea Level Pressure 30.10 in    
Wind  
Wind Speed 5 mph (NNW)    
Max Wind Speed 17 mph    
Max Gust Speed 22 mph    
Visibility 10 miles    
Events      
T = Trace of Precipitation, MM = Missing Value Source: NWS Daily Summary

Daily Weather History Graph

Daily Weather History Graph

Search for Another Location

Airport or City:

Trip Planner

Search our weather history database for the weather conditions in past years. The results will help you decide how hot, cold, wet, or windy it might be!

Date:

Astronomy

Mar. 03, 2014 Rise Set
Actual Time 6:14 AM PST 5:47 PM PST
Civil Twilight 5:49 AM PST 6:12 PM PST
Nautical Twilight 5:20 AM PST 6:40 PM PST
Astronomical Twilight 4:52 AM PST 7:09 PM PST
Moon 7:35 AM PST (3/3) 8:43 PM PST (3/3)
Length of Visible Light 12h 23m
Length of Day
11h 33m
Waxing Crescent, 8% of the Moon is Illuminated
Mar 3
Waxing Crescent
Mar 8
First Quarter
Mar 16
Full
Mar 23
Last Quarter
Mar 30
New

Hourly Weather History & Observations

Time (PST) Temp. Dew Point Humidity Pressure Visibility Wind Dir Wind Speed Gust Speed Precip Events Conditions
12:51 AM 55.9 °F 51.1 °F 84% 30.14 in 10.0 mi Calm Calm - N/A   Partly Cloudy
1:51 AM 55.9 °F 51.1 °F 84% 30.14 in 10.0 mi North 6.9 mph - N/A   Scattered Clouds
2:51 AM 55.0 °F 51.1 °F 86% 30.11 in 10.0 mi NNE 6.9 mph - N/A   Partly Cloudy
3:51 AM 54.0 °F 50.0 °F 86% 30.12 in 10.0 mi North 3.5 mph - N/A   Partly Cloudy
4:51 AM 53.1 °F 48.9 °F 86% 30.12 in 10.0 mi Calm Calm - N/A   Partly Cloudy
5:51 AM 52.0 °F 48.0 °F 86% 30.12 in 10.0 mi Calm Calm - N/A   Partly Cloudy
6:51 AM 53.1 °F 48.0 °F 83% 30.12 in 10.0 mi Calm Calm - N/A   Mostly Cloudy
7:51 AM 55.9 °F 48.0 °F 75% 30.13 in 10.0 mi Calm Calm - N/A   Mostly Cloudy
8:51 AM 60.1 °F 48.9 °F 67% 30.13 in 10.0 mi NNW 3.5 mph - N/A   Mostly Cloudy
9:51 AM 64.0 °F 50.0 °F 60% 30.12 in 10.0 mi Calm Calm - N/A   Partly Cloudy
10:51 AM 64.9 °F 48.9 °F 56% 30.11 in 10.0 mi NW 6.9 mph - N/A   Scattered Clouds
11:51 AM 66.0 °F 50.0 °F 56% 30.10 in 10.0 mi WNW 12.7 mph - N/A   Scattered Clouds
12:51 PM 66.0 °F 51.1 °F 59% 30.06 in 10.0 mi NW 13.8 mph - N/A   Mostly Cloudy
1:51 PM 64.9 °F 52.0 °F 63% 30.06 in 10.0 mi NW 12.7 mph 20.7 mph N/A   Mostly Cloudy
2:51 PM 64.9 °F 52.0 °F 63% 30.06 in 10.0 mi WNW 17.3 mph 21.9 mph N/A   Mostly Cloudy
3:51 PM 64.0 °F 53.1 °F 67% 30.05 in 10.0 mi NW 9.2 mph 19.6 mph N/A   Mostly Cloudy
4:51 PM 64.0 °F 53.1 °F 67% 30.05 in 10.0 mi WNW 6.9 mph - N/A   Mostly Cloudy
5:51 PM 63.0 °F 53.1 °F 70% 30.05 in 10.0 mi WNW 5.8 mph - N/A   Mostly Cloudy
6:51 PM 62.1 °F 54.0 °F 75% 30.08 in 10.0 mi NW 6.9 mph - N/A   Mostly Cloudy
7:15 PM 62.6 °F 53.6 °F 72% 30.09 in 10.0 mi NW 8.1 mph - N/A   Mostly Cloudy
7:51 PM 62.1 °F 54.0 °F 75% 30.11 in 10.0 mi NW 6.9 mph - N/A   Mostly Cloudy
8:00 PM 62.6 °F 53.6 °F 72% 30.11 in 10.0 mi NW 4.6 mph - N/A   Mostly Cloudy
8:46 PM 60.8 °F 53.6 °F 77% 30.10 in 10.0 mi Calm Calm - N/A   Scattered Clouds
8:51 PM 61.0 °F 53.1 °F 75% 30.10 in 10.0 mi North 3.5 mph - N/A   Scattered Clouds
9:51 PM 60.1 °F 53.1 °F 78% 30.08 in 10.0 mi Calm Calm - N/A   Partly Cloudy
10:51 PM 59.0 °F 52.0 °F 78% 30.08 in 10.0 mi NNE 3.5 mph - N/A   Scattered Clouds
11:44 PM 59.0 °F 53.6 °F 82% 30.09 in 10.0 mi Calm Calm - N/A   Mostly Cloudy
11:51 PM 59.0 °F 53.1 °F 81% 30.09 in 10.0 mi Calm Calm - N/A   Mostly Cloudy